Location: Allen Lane School
(37.8198°N, 89.7382°W)
Time: 05:13:05
(UTC+00:00)

N. Korean satellite - Pass Details

Date: 03 December 2022
Orbit: 407 x 444 km, 97.3° (Epoch: 28 January)

Event Time Altitude Azimuth Distance (km) Brightness Sun altitude
Rises 10:25:11 0° 30° (NNE) 2,505 10.5 -29.5°
Maximum altitude 10:30:09 17° 94° (E) 1,232 9.4 -28.5°
Drops below altitude 10° 10:32:27 10° 137° (SE) 1,588 9.8 -28.0°
Sets 10:34:59 0° 158° (SSE) 2,442 10.5 -27.5°
